Location: Ar Ranvel
(48.3000°N, 4.8833°W)
Time: 07:39:02
(UTC+00:00)

SJ 16-02 - Pass Details

Date: 16 June 2021
Orbit: 606 x 616 km, 75.0° (Epoch: 27 July)

Event Time Altitude Azimuth Distance (km) Brightness Sun altitude
Rises 23:47:44 0° 346° (NNW) 2,878 6.5 -17.9°
Reaches altitude 10° 23:50:15 10° 359° (N) 1,969 5.2 -18.0°
Maximum altitude 23:54:02 27° 58° (ENE) 1,166 3.0 -18.1°
Enters shadow 23:57:01 14° 111° (ESE) 1,710 3.4 -18.1°
